(568080) = 2003 OL21 = 2014 TE1

Discovered at Campo Imperator on 2003-07-28 by CINEOS.

Orbit

Orbit type: Main Belt

Note: WebGL enabled browser required.

epoch2024-03-31.0
epoch JD2460400.5
perihelion date2021-02-18.98017
perihelion JD2459264.48017
argument of perihelion (°)323.66607
ascending node (°)310.92951
inclination (°)1.28917
eccentricity0.2031501
perihelion distance (AU)1.8555066
Tisserand w.r.t. Jupiter3.5
ΔV w.r.t. Earth (km/sec)8.5
semimajor axis (AU)2.3285522
mean anomaly (°)315.10899
mean daily motion (°/day)0.27737980
aphelion distance (AU)2.802
period (years)3.55
P-vector [x]0.08023539
P-vector [y]-0.90913989
P-vector [z]-0.40868930
Q-vector [x]0.99663100
Q-vector [y]0.06617865
Q-vector [z]0.04844616
absolute magnitude18.27
phase slope0.15
uncertainty0
referenceMPEC 2024-F14
observations used117
oppositions9
arc length (days)8075
first opposition used2002
last opposition used2024
residual rms (arc-secs)0.82
perturbers coarse indicatorM-v
perturbers precise indicator003Ek
first observation date used2002-02-06.0
last observation date used2024-03-17.0
computer nameMPCLINUX
Minimum Orbit Intersection Distances (in AU)
for orbit epoch: 2460400.5, reference: E2024-G51
Mercury1.39353
Venus1.12831
Earth0.83916
Mars0.3824
Jupiter2.30893
Saturn6.24346
Uranus15.8784
Neptune27.1581

Observations

119 total observations over interval: 2002 02 06.15071 – 2024 03 17.596900
These data are available for download (format description).

